{"data":{"norad_id":65542,"intl_designator":"2025-200Y","name":"STARLINK-35100","alt_names":[],"object_type":"PAYLOAD","status":"ACTIVE","operator":null,"country":"US","launch_date":"2025-09-06","launch_site_code":"AFWTR","launch_vehicle":null,"mission":null,"orbit_class":"UNKNOWN","rcs_meters":null,"size_class":null,"mass_kg":null,"dimensions":null,"purposes":["comms"],"wikipedia_slug":null,"has_3d_model":false,"image_url":null,"decayed_at":null,"tle_current":{"epoch":"2026-09-20T21:47:06.319392Z","epoch_age_seconds":76792,"freshness":"FRESH","line1":"1 65542U 25200Y   26263.90771203  .00014218  00000+0  44186-3 0  9990","line2":"2 65542  97.2871 330.2879 0000524 109.8599 250.2700 15.33447105 58701","mean_motion":15.33447105,"eccentricity":5.24e-5,"inclination_deg":97.2871,"raan_deg":330.2879,"arg_perigee_deg":109.8599,"mean_anomaly_deg":250.27,"bstar":0.00044186,"rev_number":5870,"period_min":93.906075749512,"perigee_km":465.17830297333,"apogee_km":465.89551999925,"semimajor_km":6843.6739114863,"source":"CELESTRAK","updated_at":"2026-09-21T09:00:35.652301Z"}}}